ABS-3A

Last updated on Wed Nov 05 2025 00:02:48 GMT+0000 (Coordinated Universal Time)

1 40424U 15010A 25308.60661124 -.00000014 00000+0 00000+0 0 9999 2 40424 0.0167 294.7378 0001630 227.2363 97.5313 1.00269954 39124
UTC large
Height (km)
Speed (km/s)
/
Latitude / Longitude
Inclination (degrees)
Orbital Period (minutes)
Azimuth
Elevation
Range (km)
Doppler Factor

Next 0 passes for location: London (51.5072 / 0.1276)

Sorry there are no passes over London.